[[{"header":{"parameterUnit":"m.s-1","parameterCategory":1,"la1":30.2991,"la2":30.254,"lo1":-89.0895,"lo2":-89.0444,"dy":0.0017,"dx":0.0017,"nx":28,"ny":28,"refTime":"2025-12-17T09:00:00:Z","depth":0,"parameterNumber":2,"parameterNumberName":"U-component_of_WINDS"},"data":[0,0,0,0,0,0,0,0,0,0,0,0,0,0,0,0,0,0,0,0,0,0,0,0,0,0,0,0,0,0,0,0,0,0,0,0,0,0,0,0,0,0,0,0,0,0,0,0,0,0,0,0,0,0,0,0,0,0,-5.3453,-5.3454,0,-5.3547,-5.3549,-5.355,-5.3407,-5.3402,-5.3397,-5.3392,-5.3493,-5.35,-5.3507,0,0,0,0,0,0,0,0,0,0,0,0,0,-5.3152,-5.3158,-5.3452,-5.3454,-5.3455,-5.3547,-5.3549,-5.355,-5.3408,-5.3402,-5.3396,-5.339,-5.349,-5.3499,-5.3508,0,0,0,0,0,0,0,0,0,0,0,0,0,-5.3268,-5.316,-5.3452,-5.3395,-5.3391,-5.3547,-5.3549,-5.355,-5.3409,-5.3402,-5.3394,-5.3387,-5.3487,-5.3498,-5.3509,-5.3727,0,0,-5.3543,-5.3547,0,0,0,0,0,0,0,0,-5.3262,-5.3279,-5.3402,-5.3399,-5.3395,-5.3458,-5.3479,-5.361,-5.3411,-5.3402,-5.3392,-5.3383,-5.3487,-5.3498,-5.3532,-5.3731,-5.3736,-5.3544,-5.355,-5.3555,-5.3558,0,0,0,0,0,0,0,-5.3254,-5.3274,-5.349,-5.3404,-5.34,-5.3366,-5.3374,-5.3503,-5.3486,-5.3402,-5.3392,-5.3405,-5.3484,-5.3522,-5.3533,-5.3737,-5.3543,-5.3553,-5.356,-5.3564,-5.4121,-5.4129,0,0,0,0,0,0,-5.3252,-5.3269,-5.3487,-5.3493,-5.3308,-5.3377,-5.3386,-5.3445,-5.3484,-5.3483,-5.3412,-5.3398,-5.3507,-5.3521,-5.3537,-5.3795,-5.3555,-5.3565,-5.3571,-5.4113,-5.4123,-5.4132,0,0,0,0,0,0,-5.3246,-5.3273,-5.3483,-5.3378,-5.3402,-5.339,-5.3457,-5.3451,-5.3489,-5.3491,-5.3487,-5.3454,-5.3501,-5.3521,-5.3681,-5.3797,-5.357,-5.358,-5.4103,-5.4116,-5.4127,-5.4314,0,0,0,0,0,0,-5.3238,-5.3272,-5.3354,-5.3381,-5.3408,-5.3625,-5.3464,-5.3458,-5.3508,-5.3491,-5.3529,-5.3528,-5.3497,-5.3665,-5.3692,-5.3808,-5.3589,-5.4093,-5.4109,-5.4123,-5.4297,-5.4331,-5.436,0,0,0,0,0,-5.3228,-5.3403,-5.3358,-5.3386,-5.351,-5.3632,-5.3648,-5.3608,-5.3518,-5.36,-5.3602,-5.3527,-5.3779,-5.3682,-5.3711,-5.3832,-5.4085,-5.4104,-5.4122,-5.4283,-5.4324,-5.4359,0,0,0,0,0,0,-5.339,-5.3405,-5.3356,-5.3545,-5.3588,-5.3608,-5.3711,-5.3652,-5.3723,-5.3705,-5.3652,-5.3662,-5.3834,-5.3848,-5.374,-5.4046,-5.3917,-5.3943,-5.403,-5.4069,-5.41,-5.4093,-5.3598,0,0,0,0,0,-5.3448,-5.3545,-5.3552,-5.3718,-5.3742,-5.3724,-5.3775,-5.374,-5.3783,-5.3801,-5.3814,-5.386,-5.3949,-5.401,-5.4092,-5.4298,-5.4305,-5.4396,-5.4427,-5.4453,-5.4476,-5.4587,-5.4628,-5.4192,-5.4192,-5.4192,0,0,-5.3568,-5.3588,-5.3653,-5.3751,-5.3781,-5.3884,-5.374,-5.3854,-5.393,-5.3819,-5.3971,-5.3982,-5.403,-5.4214,-5.4296,-5.4232,-5.4597,-5.4476,-5.4497,-5.4506,-5.461,-5.4652,-5.4688,-5.4205,-5.4203,-5.4201,0,0,-5.384,-5.3864,-5.4005,-5.4038,-5.4084,-5.407,-5.4105,-5.4133,-5.4137,-5.4287,-5.4206,-5.4296,-5.4451,-5.4489,-5.4529,-5.4816,-5.4751,-5.4844,-5.5008,-5.5118,-5.5152,-5.5182,-5.5286,-5.5324,-5.4866,-5.4867,-5.4867,0,-5.3984,-5.4134,-5.4086,-5.4206,-5.4253,-5.4156,-5.4299,-5.4333,-5.4405,-5.444,-5.4367,-5.456,-5.4585,-5.4777,-5.4848,-5.4882,-5.4921,-5.484,-5.5151,-5.518,-5.5208,-5.5307,-5.5346,-5.4878,-5.4877,-5.4876,-5.4875,0,-5.431,-5.4416,-5.4524,-5.4595,-5.4654,-5.4786,-5.4758,-5.4824,-5.4784,-5.4778,-5.4934,-5.4961,-5.5048,-5.509,-5.5053,-5.5279,-5.5237,-5.5159,-5.5029,-5.5262,-5.5354,-5.5391,-5.4894,-5.489,-5.4887,-5.4884,0,0,-5.4688,-5.473,-5.4771,-5.4802,-5.4846,-5.4928,-5.5055,-5.5139,-5.5197,-5.525,-5.5357,-5.549,-5.5418,-5.5463,-5.5429,-5.5525,-5.5753,-5.5434,-5.5434,-5.5494,-5.6005,-5.6066,-5.611,-5.5709,-5.5716,-5.5721,-5.6002,0,-5.496,-5.5179,-5.514,-5.5354,-5.5452,-5.5361,-5.5473,-5.5513,-5.5511,-5.5595,-5.5593,-5.5689,-5.5585,-5.5612,-5.5703,-5.5706,-5.5855,-5.5685,-5.581,-5.5815,-5.5802,-5.6158,-5.6222,-5.6485,-5.6037,-5.6043,-5.6047,0,-5.5307,-5.5372,-5.5596,-5.5626,-5.5665,-5.5766,-5.584,-5.5921,-5.5965,-5.5957,-5.6008,-5.5956,-5.6085,-5.5952,-5.613,-5.6015,-5.6064,-5.6073,-5.6082,-5.6094,-5.5947,-5.6181,-5.6568,-5.6608,-5.6103,-5.6099,-5.6095,0,-5.5562,-5.5706,-5.5858,-5.5888,-5.5926,-5.5999,-5.6018,-5.6055,-5.6108,-5.6173,-5.6208,-5.6288,-5.6332,-5.6396,-5.6367,-5.6273,-5.6552,-5.6416,-5.655,-5.6551,-5.6614,-5.6611,-5.7017,-5.6643,-5.6643,-5.6642,-5.6641,0,-5.5871,-5.6013,-5.5974,-5.6068,-5.6224,-5.6177,-5.6333,-5.6342,-5.6375,-5.6471,-5.6397,-5.6488,-5.6444,-5.6533,-5.6512,-5.6663,-5.6684,-5.6682,-5.6675,-5.669,-5.6691,-5.6722,-5.6704,-5.6652,-5.665,-5.6648,-5.6646,0,-5.6183,-5.6163,-5.6324,-5.6346,-5.6355,-5.6469,-5.6489,-5.6578,-5.657,-5.6692,-5.6718,-5.6707,-5.6808,-5.6786,-5.6896,-5.6882,-5.7073,-5.7042,-5.7058,-5.7052,-5.7188,-5.7176,-5.7629,-5.7687,-5.7275,-5.7279,-5.7282,0,-5.6383,-5.6489,-5.6523,-5.6581,-5.6606,-5.6701,-5.6754,-5.6713,-5.6773,-5.6831,-5.6914,-5.7008,-5.7081,-5.7246,-5.7249,-5.7334,-5.7306,-5.7459,-5.7318,-5.733,-5.731,-5.7305,-5.7316,-5.7487,-5.7492,-5.7496,-5.7499,0,-5.674,-5.6724,-5.6804,-5.6882,-5.6948,-5.7007,-5.706,-5.7112,-5.7074,-5.7146,-5.7247,-5.7304,-5.7417,-5.7512,-5.759,-5.7611,-5.7551,-5.7543,-5.7579,-5.7596,-5.7601,-5.7602,-5.7136,-5.7533,-5.753,-5.7527,-5.7525,-5.7524,-5.7002,-5.7093,-5.7131,-5.7223,-5.7258,-5.7309,-5.7394,-5.7397,-5.7481,-5.7569,-5.7539,-5.7656,-5.7699,-5.7797,-5.7828,-5.7919,-5.7862,-5.7914,-5.7927,-5.7941,-5.7959,-5.7586,-5.7933,-5.7932,-5.7931,-5.7931,-5.793,0,-5.7357,-5.7377,-5.7462,-5.7537,-5.761,-5.7544,-5.7599,-5.7665,-5.7769,-5.7813,-5.7886,-5.8004,-5.8096,-5.8106,-5.8193,-5.8265,-5.8239,-5.8289,-5.8284,-5.8291,-5.8004,-5.7965,-5.8309,-5.8309,-5.8308,-5.8308,-5.8308,-5.8308,-5.755,-5.77,-5.769,-5.7858,-5.7876,-5.799,-5.8027,-5.8074,-5.8109,-5.8244,-5.8319,-5.8325,-5.8356,-5.8445,-5.8527,-5.8528,-5.8564,-5.8626,-5.8616,-5.8348,-5.8311,-5.8275,-5.8238,-5.8633,-5.8634,-5.8895,-5.8898,-5.8899]},{"header":{"parameterUnit":"m.s-1","parameterCategory":1,"la1":30.2991,"la2":30.254,"lo1":-89.0895,"lo2":-89.0444,"dy":0.0017,"dx":0.0017,"nx":28,"ny":28,"refTime":"2025-12-17T09:00:00:Z","depth":0,"parameterNumber":3,"parameterNumberName":"V-component_of_WINDS"},"data":[0,0,0,0,0,0,0,0,0,0,0,0,0,0,0,0,0,0,0,0,0,0,0,0,0,0,0,0,0,0,0,0,0,0,0,0,0,0,0,0,0,0,0,0,0,0,0,0,0,0,0,0,0,0,0,0,0,0,-0.6449,-0.6449,0,-0.6445,-0.6445,-0.6444,-0.6436,-0.6436,-0.6436,-0.6436,-0.6431,-0.6431,-0.6431,0,0,0,0,0,0,0,0,0,0,0,0,0,-0.6448,-0.6448,-0.6449,-0.6449,-0.6449,-0.6445,-0.6445,-0.6444,-0.6436,-0.6436,-0.6436,-0.6436,-0.6431,-0.6431,-0.6431,0,0,0,0,0,0,0,0,0,0,0,0,0,-0.6446,-0.6448,-0.6449,-0.6444,-0.6444,-0.6445,-0.6445,-0.6444,-0.6436,-0.6436,-0.6436,-0.6435,-0.6431,-0.6431,-0.6431,-0.6436,0,0,-0.6431,-0.6431,0,0,0,0,0,0,0,0,-0.6447,-0.6447,-0.6445,-0.6444,-0.6444,-0.6441,-0.6443,-0.6442,-0.6436,-0.6439,-0.6436,-0.6435,-0.6434,-0.6434,-0.6434,-0.6436,-0.6436,-0.6431,-0.6431,-0.6431,-0.6431,0,0,0,0,0,0,0,-0.6447,-0.6447,-0.6447,-0.6445,-0.6444,-0.6442,-0.6441,-0.6442,-0.6438,-0.6439,-0.6438,-0.6438,-0.6434,-0.6434,-0.6434,-0.6436,-0.6431,-0.6431,-0.6431,-0.6431,-0.6441,-0.6441,0,0,0,0,0,0,-0.6448,-0.6447,-0.6447,-0.6447,-0.6445,-0.6442,-0.6441,-0.6442,-0.6438,-0.6437,-0.6438,-0.6437,-0.6434,-0.6434,-0.6434,-0.6439,-0.6431,-0.6431,-0.6431,-0.6441,-0.6441,-0.6441,0,0,0,0,0,0,-0.6448,-0.6448,-0.6447,-0.6447,-0.6446,-0.6442,-0.6443,-0.6442,-0.6442,-0.6438,-0.6437,-0.6439,-0.6434,-0.6434,-0.6435,-0.6439,-0.6431,-0.6432,-0.644,-0.6441,-0.6441,-0.645,0,0,0,0,0,0,-0.6448,-0.6448,-0.645,-0.6447,-0.6447,-0.645,-0.6443,-0.6442,-0.6442,-0.6441,-0.6438,-0.6437,-0.6434,-0.6435,-0.6436,-0.6438,-0.6432,-0.644,-0.644,-0.6441,-0.6449,-0.645,-0.6451,0,0,0,0,0,-0.6448,-0.6453,-0.645,-0.6451,-0.645,-0.645,-0.645,-0.6446,-0.6442,-0.6444,-0.6441,-0.6437,-0.6438,-0.6436,-0.6436,-0.6439,-0.644,-0.644,-0.6441,-0.6449,-0.645,-0.6451,0,0,0,0,0,0,-0.6457,-0.6453,-0.645,-0.6454,-0.6452,-0.6449,-0.6451,-0.6447,-0.6447,-0.6446,-0.6441,-0.644,-0.6442,-0.6441,-0.6438,-0.6443,-0.6438,-0.6439,-0.6444,-0.6445,-0.6446,-0.6447,-0.6432,0,0,0,0,0,-0.646,-0.6461,-0.6457,-0.6461,-0.646,-0.6456,-0.6456,-0.6453,-0.6451,-0.645,-0.6447,-0.6445,-0.6445,-0.6445,-0.6445,-0.6448,-0.6447,-0.645,-0.6451,-0.6452,-0.6453,-0.6454,-0.6455,-0.6443,-0.6443,-0.6443,0,0,-0.6465,-0.6463,-0.6464,-0.6463,-0.6461,-0.6462,-0.6455,-0.6457,-0.6457,-0.645,-0.6452,-0.645,-0.6447,-0.645,-0.6451,-0.6448,-0.6456,-0.6453,-0.6454,-0.6454,-0.6454,-0.6456,-0.6457,-0.6443,-0.6443,-0.6443,0,0,-0.6476,-0.6474,-0.6477,-0.6476,-0.6473,-0.647,-0.647,-0.6467,-0.6465,-0.6466,-0.6461,-0.6461,-0.6461,-0.6459,-0.6458,-0.6465,-0.6461,-0.6465,-0.6471,-0.6472,-0.6473,-0.6474,-0.6476,-0.6477,-0.6466,-0.6466,-0.6466,0,-0.6483,-0.6484,-0.6479,-0.6481,-0.648,-0.6473,-0.6476,-0.6474,-0.6472,-0.6471,-0.6468,-0.6467,-0.6465,-0.6466,-0.6468,-0.6468,-0.6468,-0.6466,-0.6473,-0.6474,-0.6475,-0.6477,-0.6478,-0.6466,-0.6466,-0.6466,-0.6466,0,-0.6493,-0.6494,-0.6496,-0.6494,-0.6493,-0.6495,-0.649,-0.649,-0.6486,-0.6483,-0.6483,-0.648,-0.6479,-0.6479,-0.6475,-0.6479,-0.6478,-0.6474,-0.6469,-0.6476,-0.6478,-0.6479,-0.6467,-0.6467,-0.6467,-0.6467,0,0,-0.6511,-0.6504,-0.6505,-0.6503,-0.6499,-0.6499,-0.65,-0.6498,-0.6498,-0.6496,-0.6496,-0.6496,-0.6492,-0.649,-0.6487,-0.6487,-0.6493,-0.6483,-0.6483,-0.6485,-0.6496,-0.6499,-0.65,-0.649,-0.649,-0.649,-0.6496,0,-0.652,-0.6522,-0.6517,-0.652,-0.652,-0.6513,-0.6513,-0.651,-0.6507,-0.6506,-0.6502,-0.6501,-0.6497,-0.6496,-0.6496,-0.6492,-0.6495,-0.6492,-0.649,-0.649,-0.6491,-0.6501,-0.6505,-0.6511,-0.6497,-0.6497,-0.6497,0,-0.6532,-0.653,-0.6533,-0.6527,-0.6527,-0.6528,-0.6525,-0.6525,-0.6521,-0.6518,-0.6516,-0.6511,-0.6511,-0.6506,-0.6505,-0.6503,-0.6502,-0.6499,-0.6499,-0.6499,-0.6494,-0.6501,-0.6513,-0.6513,-0.6498,-0.6498,-0.6498,0,-0.6544,-0.6542,-0.6544,-0.6542,-0.6536,-0.6536,-0.6533,-0.6529,-0.6528,-0.6525,-0.6524,-0.6521,-0.652,-0.6518,-0.6512,-0.6509,-0.6512,-0.6506,-0.6509,-0.6509,-0.651,-0.651,-0.6522,-0.651,-0.6509,-0.6509,-0.6509,0,-0.6556,-0.6558,-0.6549,-0.655,-0.6551,-0.6544,-0.6546,-0.6542,-0.6538,-0.6538,-0.6531,-0.653,-0.6523,-0.6521,-0.6517,-0.6516,-0.6516,-0.6513,-0.6512,-0.6514,-0.6514,-0.6513,-0.6513,-0.651,-0.651,-0.651,-0.651,0,-0.657,-0.6564,-0.6565,-0.6558,-0.6556,-0.6558,-0.6552,-0.6552,-0.6547,-0.6547,-0.6546,-0.6539,-0.6537,-0.653,-0.6527,-0.6523,-0.6524,-0.6522,-0.6526,-0.6525,-0.6528,-0.6527,-0.6539,-0.654,-0.6527,-0.6527,-0.6527,0,-0.6578,-0.6579,-0.6572,-0.6571,-0.6569,-0.6567,-0.6566,-0.6558,-0.6557,-0.6552,-0.6552,-0.6549,-0.6546,-0.6543,-0.6537,-0.6534,-0.6531,-0.6535,-0.6531,-0.6532,-0.6531,-0.6531,-0.6531,-0.6537,-0.6537,-0.6537,-0.6537,0,-0.6593,-0.6589,-0.6587,-0.6584,-0.6582,-0.6579,-0.6575,-0.6575,-0.6566,-0.6565,-0.6562,-0.656,-0.6555,-0.6552,-0.6548,-0.6544,-0.6539,-0.6538,-0.6539,-0.6541,-0.6543,-0.6541,-0.6528,-0.6538,-0.6538,-0.6538,-0.6538,-0.6538,-0.6604,-0.6604,-0.6599,-0.6596,-0.6593,-0.6589,-0.6588,-0.6583,-0.6581,-0.6577,-0.6572,-0.657,-0.6564,-0.6558,-0.6554,-0.6552,-0.6549,-0.655,-0.655,-0.6551,-0.6551,-0.6543,-0.6551,-0.6551,-0.6551,-0.6551,-0.6551,0,-0.6618,-0.6613,-0.6611,-0.6606,-0.6604,-0.6598,-0.6594,-0.6592,-0.659,-0.6585,-0.6582,-0.6579,-0.6575,-0.6569,-0.6564,-0.6564,-0.6561,-0.6563,-0.6563,-0.6562,-0.6554,-0.6554,-0.6565,-0.6565,-0.6565,-0.6565,-0.6565,-0.6565,-0.6625,-0.6624,-0.662,-0.6618,-0.6613,-0.6611,-0.6608,-0.6605,-0.6601,-0.6597,-0.6594,-0.6589,-0.6583,-0.6578,-0.6575,-0.6573,-0.6571,-0.6574,-0.6571,-0.6564,-0.6563,-0.6561,-0.6561,-0.6574,-0.6574,-0.6579,-0.6579,-0.6579]}]]